Regional Weather Roundup
Issued by NWS

Home | Current Version | Previous Version | Text Only | Print | Product List | Glossary On
Versions: 1 2 3 4 5 6 7 8 9 10 11 12 13 14 15 16 17 18 19 20 21 22 23 24 25 26 27 28 29 30 31 32 33 34 35 36 37 38 39 40 41 42 43 44 45 46 47 48 49 50
000
ASUS46 KPQR 010410
RWROR

OREGON REGIONAL WEATHER ROUNDUP
NATIONAL WEATHER SERVICE PORTLAND OR
800 PM PST SAT JAN 31 2015

NOTE: "FAIR" INDICATES FEW OR NO CLOUDS BELOW 12,000 FEET WITH
NO SIGNIFICANT WEATHER AND/OR OBSTRUCTIONS TO VISIBILITY.

ORZ001>013-010500-
NORTHWEST OREGON


CITY           SKY/WX    TMP DP  RH WIND       PRES   REMARKS
ASTORIA        CLOUDY    45  41  86 CALM      30.05F
NEWPORT        CLOUDY    50  37  62 E9        30.08F
PORTLAND       CLOUDY    43  34  70 SE8       30.12F
VANCOUVER WA   CLOUDY    42  34  73 SE3       30.12F
SCAPPOOSE      MOCLDY    39  37  92 CALM      30.13F
HILLSBORO      MOCLDY    43  35  73 SE3       30.11F
AURORA         CLOUDY    40  34  79 N3        30.12F
MCMINNVILLE    CLOUDY    45  36  70 NE3       30.13S
SALEM          CLOUDY    41  39  93 SE7       30.10F
CORVALLIS      CLOUDY    39  37  93 S3        30.13F
EUGENE         CLOUDY    40  38  93 CALM      30.13F FOG
$$

ORZ021-028-010500-
SOUTHWEST OREGON


CITY           SKY/WX    TMP DP  RH WIND       PRES   REMARKS
NORTH BEND     PTCLDY    50  48  93 SE8       30.05F
BROOKINGS      PTCLDY    51  44  77 CALM      30.06F
ROSEBURG       PTCLDY    46  41  82 CALM      30.09S
SEXTON SUMMIT  CLEAR     51  22  31 SE8       30.11S
MEDFORD        CLEAR     41  35  79 CALM      30.12R
$$

ORZ014>016-041-010500-
COLUMBIA GORGE


CITY           SKY/WX    TMP DP  RH WIND       PRES   REMARKS
TROUTDALE      CLOUDY    43  33  68 E22G31    30.11F
THE DALLES     CLOUDY    40  32  73 E7        30.33S
$$

ORZ029>031-041-044-049-050-061>064-502-503-505>511-010500-
EASTERN OREGON


CITY           SKY/WX    TMP DP  RH WIND       PRES   REMARKS
REDMOND        CLOUDY    31  30  96 VRB3      30.18F FOG
BEND           FOG       28  28 100 CALM      30.19S VSB 1/4
PRINEVILLE     FOG       30  30 100 CALM      30.19S VSB 1/4
KLAMATH FALLS  CLEAR     29  23  78 NE3       30.17R
LAKEVIEW       CLEAR     28  21  74 N7        30.19F WCI  21
HERMISTON      CLOUDY    37  32  82 NE8       30.31F WCI  31
PENDLETON      CLOUDY    34  31  88 NE8       30.26F WCI  27
JOHN DAY       PTCLDY    35  30  83 E7        30.18F WCI  29
MEACHAM        CLOUDY    30  27  88 CALM      30.17S
LA GRANDE      MOCLDY    34  25  69 N5        30.19R WCI  30
BAKER CITY     PTCLDY    30  26  85 W5        30.19S WCI  25
BURNS          PTCLDY    30  27  88 CALM      30.18S
ROME             N/A     34  24  67 CALM      30.17R
ONTARIO        MOCLDY    35  30  82 NW3       30.20R
$$


USA.gov is the U.S. government's official web portal to all federal, state and local government web resources and services.